Location: ??????
(55.6130°N, 37.7882°E)
Time: 04:28:46
(UTC+00:00)

Daily predictions for brighter satellites

Satellite Brightness Start Highest point End
(mag) Time Altitude Azimuth Time Altitude Azimuth Time Altitude Azimuth
Cosmos 2221 2.9 00:03:42 34° WSW 00:04:58 45° WNW 00:09:06 10° N
COSMOS 2441 4.4 00:00:58 10° NNE 00:05:55 85° ESE 00:08:43 26° SSW
Cosmos 1766 Rocket 4.5 00:03:32 10° NNW 00:07:17 29° W 00:07:52 28° WSW
Cosmos 2333 Rocket 2.4 00:04:54 28° WSW 00:07:55 63° NW 00:13:34 10° NNE
Lacrosse 5 2.0 00:05:37 31° SW 00:07:58 65° SSE 00:13:03 10° ENE
NOSS 3-1 (C) 4.2 00:01:56 10° NW 00:08:30 67° NNE 00:16:43 10° ESE
ALOS 3.0 00:04:05 10° NNE 00:08:36 48° E 00:12:17 15° S
Cosmos 972 Rocket 4.0 00:07:57 28° SSW 00:10:54 81° WNW 00:15:59 10° NNE
Cosmos 44 Rocket 3.5 00:10:18 29° SSW 00:13:01 72° SE 00:18:10 10° NE
Cosmos 2360 Rocket 2.6 00:09:55 24° WSW 00:13:07 53° NW 00:18:39 10° NNE
Lacrosse 4 Rocket 3.2 00:15:03 12° WNW 00:17:49 23° NNW 00:21:04 10° NNE
Cosmos 2278 Rocket 2.1 00:13:04 10° NW 00:18:44 68° WSW 00:24:22 10° SSE
Cosmos 1743 3.9 00:16:36 10° NW 00:19:36 24° W 00:19:41 24° W
NOSS 3-4 (A) 3.3 00:16:26 25° SW 00:19:51 89° SE 00:26:14 10° NE
NOSS 3-4 (C) 3.3 00:16:29 25° SW 00:19:55 89° SE 00:26:17 10° NE
Sich 1 2.9 00:16:21 10° NNW 00:20:37 87° WSW 00:24:33 12° S
Cosmos 1733 3.3 00:18:13 10° N 00:21:50 70° ENE 00:25:25 10° SSE
IDEFIX/ARIANE 42P 2.9 00:17:49 10° N 00:22:50 50° WNW 00:25:43 24° SW
Cosmos 2322 Rocket 3.0 00:19:32 19° WSW 00:23:10 40° NW 00:28:28 10° NNE
Cosmos 773 Rocket 4.5 00:20:38 24° WSW 00:23:35 50° NW 00:28:44 10° NNE
NOSS 2-3 (C) 4.4 00:18:54 10° NW 00:24:11 61° SW 00:31:23 10° SSE
BlueWalker 3 2.4 00:23:38 31° WSW 00:24:36 37° SSW 00:28:10 10° SE
SAR-Lupe-1 4.0 00:21:23 10° NNE 00:25:02 85° ESE 00:26:59 26° SSW
MSX 4.1 00:21:40 10° NNE 00:27:20 58° WNW 00:31:06 22° SW
Cosmos 1743 Rocket 3.4 00:23:52 10° NNW 00:28:14 78° W 00:32:27 10° S
NOSS 2-3 (D) 4.4 00:24:04 10° NW 00:29:19 60° SW 00:36:27 10° SSE
Cosmos 2219 Rocket 2.3 00:27:22 23° SW 00:30:53 66° NW 00:36:29 10° NNE
Cosmos 1538 Rocket 4.2 00:26:59 18° SSW 00:30:57 71° ESE 00:36:17 10° NNE
ATLAS 3B R/B 3.6 00:23:31 10° NW 00:31:08 60° NNE 00:38:52 10° ESE
Cosmos 192 4.3 00:27:29 10° NNW 00:32:18 58° WSW 00:37:06 10° S
Gbstr 26 Del rocket 3.9 00:31:34 22° SSW 00:33:12 30° SSE 00:36:35 10° E
Cosmos 1536 3.1 00:30:07 10° NNW 00:33:50 44° W 00:35:46 24° SSW
Meteor 2-10 4.1 00:28:29 10° NNW 00:34:04 79° W 00:39:46 10° S
Cosmos 1420 Rocket 4.1 00:29:52 10° NNW 00:35:08 79° ENE 00:40:25 10° SSE
Cosmos 1633 Rocket 4.2 00:31:15 10° N 00:35:26 46° ENE 00:39:37 10° SE
SAR-Lupe-4 3.5 00:32:37 10° NNE 00:36:10 70° WNW 00:38:09 25° SSW
SWAS 4.3 00:32:09 10° NW 00:36:24 89° SW 00:40:36 10° SE
COBE Rocket 4.2 00:32:25 10° N 00:36:56 46° WNW 00:39:40 22° SW
NOSS 7 (E) 4.3 00:34:06 10° WNW 00:37:04 50° SW 00:40:22 10° SSE
NOSS 2-2 (E) 4.2 00:33:07 10° WNW 00:37:08 40° SW 00:42:36 10° SSE
Cosmos 2056 Rocket 3.8 00:33:13 10° NNW 00:38:37 74° ENE 00:44:02 10° SE
Cosmos 1805 3.6 00:35:56 10° N 00:39:38 63° ENE 00:43:18 10° SSE
GP-B 3.1 00:35:25 10° N 00:39:49 65° W 00:43:17 16° SSW
SL-16 R/B 3.6 00:35:17 11° W 00:39:57 28° NNW 00:44:51 10° NNE
Meteor 1-28 Rocket 4.3 00:45:44 22° WSW 00:46:38 25° W 00:49:42 10° NW
Cosmos 1092 Rocket 4.1 00:42:33 10° S 00:48:40 79° E 00:54:51 10° NNE
ADEOS II 2.3 00:44:05 10° N 00:49:13 56° WNW 00:53:12 17° SW
CZ-2C R/B 3.5 00:45:24 10° NNE 00:50:23 46° E 00:55:20 10° S
Cosmos 1624 Rocket 4.0 00:45:52 10° NNW 00:51:10 86° ENE 00:56:24 10° SSE
FENGYUN 3A 3.8 00:45:51 10° NNE 00:51:13 62° WNW 00:55:38 15° SW
NOSS 2-2 (D) 4.2 00:47:30 10° WNW 00:51:28 41° SW 00:56:49 10° SSE
Cosmos 1726 3.1 00:51:28 10° NW 00:54:03 22° W 00:54:45 21° WSW
Meteor 1-19 Rocket 4.4 00:48:24 10° S 00:54:20 87° ESE 01:00:25 10° NNE
Cosmos 2026 Rocket 4.1 00:50:22 10° S 00:56:41 87° E 01:03:06 10° NNE
SL-16 R/B 3.1 00:51:35 11° SSW 00:56:57 36° W 01:02:39 10° NNW
Okean 1 3.2 00:54:37 17° SSW 00:57:29 62° WNW 01:01:17 10° N
CZ-2D R/B 3.0 00:55:32 10° N 01:00:22 36° WNW 01:04:21 15° WSW
ATLAS 5 CENTAUR R/B 1.9 00:56:39 10° NW 01:01:11 85° NE 01:06:52 10° SE
Cosmos 1461 3.7 00:59:12 10° WNW 01:02:23 25° WSW 01:05:32 10° S
Envisat 3.2 01:02:09 10° NNE 01:07:15 74° ESE 01:12:20 10° S
Cosmos 923 Rocket 4.4 01:02:17 10° SSW 01:07:28 66° ESE 01:12:42 10° NNE
Cosmos 1151 Rocket 3.0 01:04:21 10° SSW 01:08:39 82° WNW 01:13:01 10° N
RESURS DK-1 2.3 01:06:15 14° SW 01:09:42 88° ESE 01:13:48 10° NE
Intercosmos 25 Rocket 3.1 01:15:16 10° NNW 01:18:28 62° W 01:22:28 10° S
Cosmos 1766 3.8 01:15:29 10° N 01:19:09 58° ENE 01:22:48 10° SSE
Cosmos 1943 Rocket 2.5 01:14:03 10° NW 01:19:25 44° WSW 01:24:45 10° S
Cosmos 921 Rocket 4.3 01:15:40 10° S 01:19:39 40° ESE 01:23:45 10° NE
Cosmos 1371 Rocket 4.0 01:14:45 10° NNW 01:19:54 60° WSW 01:25:04 10° S
ATLAS 2AS CENTAUR R/B 4.1 01:13:21 10° S 01:19:56 36° ESE 01:26:16 10° ENE
Meteor 1-27 Rocket 3.9 01:14:57 10° SSW 01:20:40 61° WNW 01:26:19 10° N
Cosmos 1470 Rocket 3.8 01:16:54 10° N 01:21:18 77° ENE 01:25:42 10° SSE
Cosmos 1975 2.8 01:18:55 10° NNW 01:22:42 56° W 01:26:29 10° S
Thor Agena Rocket 3.8 01:18:07 10° NNE 01:23:11 72° ESE 01:28:13 10° S
NOAA 11 4.3 01:19:36 10° NNE 01:25:05 84° ESE 01:30:34 10° SSW
Meteor 2-4 Rocket 3.9 01:21:11 10° S 01:26:35 78° E 01:32:10 10° NNE
H-2A R/B 3.8 01:22:10 10° NNE 01:26:39 33° E 01:31:12 10° SSE
COSMOS 2428 3.1 01:22:41 11° SW 01:28:03 54° NW 01:33:40 10° NNE
Cosmos 1340 2.5 01:24:49 10° NNW 01:28:12 52° W 01:31:32 10° S
Cosmos 2297 3.9 01:22:29 10° NW 01:28:17 84° NE 01:34:03 10° SE
CZ-4 R/B 3.9 01:23:44 10° NNE 01:28:32 68° WNW 01:33:12 10° SSW
CZ-2C R/B 4.5 01:31:41 10° WSW 01:34:08 13° W 01:36:34 10° NW
Cosmos 1484 Rocket 4.5 01:31:11 10° NNE 01:34:29 32° E 01:37:44 10° SSE
CZ-2C R/B 4.1 01:30:16 10° N 01:34:33 29° WNW 01:39:00 10° WSW
Cosmos 1666 Rocket 3.9 01:30:29 10° NNW 01:34:48 48° W 01:39:04 10° SSW
S3M 4.1 01:29:20 10° N 01:35:31 83° ENE 01:41:44 10° SSE
NOSS 3-1 (A) 4.0 01:29:00 10° NW 01:35:49 88° NE 01:44:16 10° SE
Cosmos 2237 Rocket 2.3 01:30:10 10° SSW 01:35:52 88° WNW 01:41:37 10° NE
Cosmos 1980 3.7 01:31:25 10° SW 01:37:05 83° NW 01:42:48 10° NNE
Cosmos 2369 Rocket 2.4 01:31:54 10° NNW 01:37:35 77° NE 01:43:11 10° SE
Cosmos 1626 2.3 01:36:19 10° S 01:39:35 64° E 01:42:53 10° NNE
BREEZE-M DEB (TANK) 2.1 01:38:03 10° SW 01:40:11 31° SSE 01:42:05 10° E
Resurs 1-4 Rocket 3.7 01:37:15 10° N 01:41:05 21° NW 01:44:54 10° W
USA 229 DEB 4.5 01:36:46 10° NW 01:43:47 64° NNE 01:51:32 10° ESE
USA 229 4.5 01:36:54 10° NW 01:43:55 63° NNE 01:51:40 10° ESE
USA 215 3.4 01:37:36 10° E 01:44:11 80° N 01:50:44 10° W
ALOS 3.2 01:41:37 10° N 01:45:41 31° WNW 01:49:45 10° WSW
Cosmos 2112 Rocket 4.2 01:41:39 10° SSW 01:47:00 84° ESE 01:52:23 10° NNE
Cosmos 1933 Rocket 3.8 01:44:15 10° N 01:48:39 78° ENE 01:53:01 10° SSE
DMSP B5D2-2 4.3 01:44:43 10° S 01:49:44 48° W 01:54:47 10° NNW
YAOGAN 11 4.3 01:45:23 10° SSE 01:49:54 88° ENE 01:54:29 10° NNW
Lacrosse 5 2.1 01:45:51 10° W 01:50:59 77° N 01:56:08 10° E
Cosmos 2266 Rocket 4.3 01:45:56 10° S 01:51:58 71° E 01:58:00 10° NNE
CRYOSAT 2 4.4 01:47:13 10° N 01:52:09 89° W 01:57:01 10° S
